Home > Weather > Leimen > Past weeks

Flag for Germany Past Weather in Leimen, Baden-Württemberg, Germany — Yesterday and Last 2 Weeks

Now
82 °F

Sunny.


Feels Like: 83 °F
Forecast: 66 / 93 °F
Wind: 3 mph from North

Location: Mannheim City

Current Time: Aug 26, 2016 at 12:33:15 PM

Latest Report: Aug 26, 2016 at 11:50 AM


Visibility: 10 mi

Pressure: 30.07 "Hg

Humidity: 51%

Dew Point: 63 °F

Location of LeimenLocation

Past Weather in Leimen — Graph

°F

Leimen Temperature Yesterday

Maximum temperature yesterday: 91 °F (at 4:20 PM)
Minimum temperature yesterday: 63 °F (at 6:20 AM)
Average temperature yesterday: 80 °F

High & Low Weather Summary for the Past Weeks

 TemperatureHumidityPressure
High91 °F (Aug 25, 4:20 PM)100% (Aug 12, 5:20 AM)30.39 "Hg (Aug 12, 5:20 AM)
Low54 °F (Aug 18, 6:20 AM)23% (Aug 25, 4:50 PM)29.80 "Hg (Aug 18, 4:20 PM)
Average72 °F63%30.10 "Hg
* Reported Aug 11 11:20 AM — Aug 26 11:20 AM, Leimen, Weather by CustomWeather, © 2016

Note: Actual official high and low records may vary slightly from our data, if they occured in-between our weather recording intervals... More about our weather records

Advertising

Leimen Weather History for the Previous 24 Hours

Scroll right to see more
 ConditionsComfort  
Time TempWeatherWind HumidityBarometerVisibility
11:20 AM
Fri, Aug 26
79 °FSunny.5 mph54%30.07 "Hg10 mi
10:50 AM79 °FPassing clouds.5 mph54%30.04 "HgN/A
10:20 AM77 °FPassing clouds.5 mph57%30.04 "HgN/A
9:50 AM75 °FSunny.3 mph57%30.04 "Hg10 mi
9:20 AM73 °FSunny.1 mph61%30.04 "Hg10 mi
8:50 AM73 °FSunny.No wind61%30.04 "Hg10 mi
8:20 AM72 °FSunny.1 mph65%30.04 "Hg10 mi
7:50 AM68 °FSunny.No wind83%30.04 "Hg10 mi
7:20 AM64 °FClear.1 mph88%30.04 "Hg10 mi
6:50 AM63 °FClear.No wind94%30.04 "Hg10 mi
6:20 AM63 °FClear.1 mph94%30.01 "Hg10 mi
5:50 AM63 °FClear.No wind88%30.01 "Hg10 mi
5:20 AM63 °FClear.No wind88%30.01 "Hg10 mi
11:20 PM
Thu, Aug 25
70 °FClear.1 mph69%30.01 "Hg10 mi
10:50 PM70 °FClear.1 mph64%30.01 "Hg10 mi
10:20 PM72 °FClear.No wind65%29.98 "Hg10 mi
9:50 PM73 °FClear.No wind61%29.98 "Hg10 mi
9:20 PM75 °FSunny.2 mph54%29.98 "Hg10 mi
8:50 PM77 °FSunny.2 mph51%29.98 "Hg10 mi
8:20 PM82 °FSunny.1 mph42%29.98 "Hg10 mi
7:50 PM88 °FSunny.3 mph27%29.98 "Hg10 mi
7:20 PM90 °FPassing clouds.6 mph26%29.98 "HgN/A
6:50 PM91 °FSunny.6 mph23%29.98 "Hg10 mi
6:20 PM91 °FPassing clouds.6 mph23%29.98 "HgN/A
5:50 PM91 °FPassing clouds.8 mph23%29.98 "HgN/A
5:20 PM91 °FPassing clouds.7 mph24%30.01 "HgN/A
4:50 PM91 °FPassing clouds.6 mph23%30.01 "HgN/A
4:20 PM91 °FPassing clouds.6 mph24%30.01 "HgN/A
3:50 PM90 °FPassing clouds.5 mph27%30.01 "HgN/A
3:20 PM90 °FSunny.5 mph31%30.04 "Hg10 mi
2:50 PM88 °FPassing clouds.5 mph33%30.04 "HgN/A
2:20 PM86 °FSunny.3 mph38%30.04 "Hg10 mi
1:50 PM86 °FSunny.3 mph38%30.04 "Hg10 mi
1:20 PM84 °FPassing clouds.7 mph40%30.07 "HgN/A
12:50 PM84 °FPassing clouds.8 mph43%30.07 "HgN/A
12:20 PM82 °FPassing clouds.8 mph42%30.07 "HgN/A
Weather by CustomWeather, © 2016

See weather overviewHow to use our weather pages